This demonstration page uses our WeatherBlox Daily Observations layout. Learn more.

Left ArrowRight Arrow

Hourly Observations for May 3, 2017

Temp ( °F °C ) Dew Point ( °F °C ) Humidity (%) Winds ( mph kmh ) Pressure ( in mb ) Visibility ( mi km ) Precip ( " mm )
12:52 am 00:52 Cloudy with Nearby Thunderstorms 58 14.4 45 7.2 62 62 E 13 20 29.96 1015 10 16 0.00 0.03
1:01 am 01:01 Cloudy with Light Rain 58 14.4 46 7.8 65 65 ENE 10 17 29.97 1015 10 16 0.00 0.03
1:17 am 01:17 Cloudy with Nearby Thunderstorms 57 13.9 46 7.8 67 67 E 8 13 30.00 1016 10 16 0.00 0.03
1:52 am 01:52 Cloudy with Strong Thunderstorms 55 12.8 48 8.9 77 77 E 9 15 29.97 1015 6 10 0.04 1.02
2:20 am 02:20 Cloudy with Nearby Thunderstorms 54 12 48 9 82 82 NE 16 26 29.97 1015 5 8 0.00 0.00
2:37 am 02:37 Cloudy with Thunderstorms 54 12.2 48 8.9 80 80 N 9 15 30.00 1016 10 16 0.16 4.06
2:52 am 02:52 Cloudy with Strong Thunderstorms 53 11.7 47 8.3 80 80 E 22 35 29.97 1015 4 6 0.22 5.59
3:00 am 03:00 Cloudy with Strong Thunderstorms 54 12 46 8 77 77 E 17 28 30.00 1016 4 6 0.00 0.00
3:52 am 03:52 Cloudy with Strong Thunderstorms 52 11.1 49 9.4 89 89 E 17 28 29.96 1014 4 6 0.27 6.86
4:14 am 04:14 Cloudy with Nearby Thunderstorms 52 11 48 9 88 88 E 18 30 29.97 1015 3 5 0.00 0.00
4:19 am 04:19 Cloudy with Heavy Rain 51 10.6 49 9.4 92 92 E 18 30 29.94 1014 3 4 0.18 4.57
4:23 am 04:23 Cloudy with Nearby Thunderstorms 51 10.6 49 9.4 92 92 E 22 35 29.94 1014 3 5 0.24 6.10
4:44 am 04:44 Cloudy with Light Rain 52 11 48 9 88 88 E 24 39 29.91 1013 10 16 0.00 0.00
4:52 am 04:52 Cloudy with Light Rain 52 11.1 48 8.9 86 86 E 22 35 29.90 1013 10 16 0.28 7.11
5:12 am 05:12 Cloudy with Nearby Thunderstorms 52 11 48 9 88 88 ENE 16 26 29.91 1013 10 16 0.00 0.00
5:48 am 05:48 Cloudy 52 11 48 9 88 88 ENE 14 22 29.94 1014 10 16 0.00 0.00
5:52 am 05:52 Cloudy 52 11.1 48 8.9 86 86 ENE 13 20 29.92 1013 10 16 0.02 0.51
6:25 am 06:25 Cloudy with Thunderstorms 51 10.6 48 8.9 89 89 E 13 20 29.94 1014 10 16 0.00 0.03
6:42 am 06:42 Cloudy with Nearby Thunderstorms 52 11 48 9 88 88 ENE 10 17 29.94 1014 10 16 0.00 0.00
6:52 am 06:52 Cloudy with Nearby Thunderstorms 51 10.6 48 8.9 89 89 ENE 12 19 29.94 1014 10 16 0.00 0.03
7:16 am 07:16 Cloudy with Thunderstorms 52 11 48 9 88 88 ENE 13 20 29.97 1015 10 16 0.00 0.00
7:23 am 07:23 Cloudy with Thunderstorms 51 10.6 48 8.9 89 89 ENE 7 11 29.97 1015 8 13 0.03 0.76
7:26 am 07:26 Cloudy with Nearby Thunderstorms 51 10.6 49 9.4 92 92 NE 10 17 29.97 1015 6 10 0.04 1.02
7:38 am 07:38 Cloudy with Thunderstorms 52 11 48 9 88 88 E 8 13 29.97 1015 7 11 0.00 0.00
7:47 am 07:47 Cloudy with Strong Thunderstorms 52 11 48 9 88 88 E 17 28 29.97 1015 5 8 0.10 2.54
7:52 am 07:52 Cloudy with Strong Thunderstorms 51 10.6 48 8.9 89 89 E 16 26 29.93 1014 5 8 0.13 3.30
7:59 am 07:59 Cloudy with Heavy Rain 51 10.6 48 8.9 89 89 E 20 31 29.91 1013 4 6 0.04 1.02
8:08 am 08:08 Cloudy with Rain 52 11 48 9 88 88 E 21 33 29.88 1012 5 8 0.00 0.00
8:52 am 08:52 Cloudy with Light Rain 51 10.6 48 8.9 89 89 ENE 8 13 29.96 1015 10 16 0.11 2.79
9:52 am 09:52 Cloudy with Rain 51 10.6 47 8.3 86 86 E 20 31 29.88 1012 5 8 0.14 3.56
10:52 am 10:52 Cloudy 52 11.1 48 8.9 86 86 ENE 10 17 29.89 1012 10 16 0.02 0.51
11:52 am 11:52 Cloudy 52 11.1 48 8.9 86 86 ENE 12 19 29.88 1012 10 16 0.00 0.03
12:16 pm 12:16 Cloudy 52 11.1 48 8.9 86 86 ENE 13 20 29.88 1012 10 16 0.00 0.00
12:52 pm 12:52 Cloudy with Light Rain 51 10.6 48 8.9 89 89 ENE 12 19 29.87 1012 10 16 0.00 0.03
1:17 pm 13:17 Cloudy with Light Rain 51 10.6 48 8.9 89 89 ENE 12 19 29.85 1011 8 13 0.01 0.25
1:36 pm 13:36 Cloudy 52 11 48 9 88 88 ENE 13 20 29.83 1010 10 16 0.00 0.00
1:47 pm 13:47 Cloudy 52 11 48 9 88 88 ENE 13 20 29.83 1010 10 16 0.01 0.25
1:52 pm 13:52 Cloudy 51 10.6 48 8.9 89 89 ENE 12 19 29.83 1010 10 16 0.01 0.25
2:52 pm 14:52 Cloudy 52 11.1 49 9.4 89 89 NE 10 17 29.85 1011 10 16 0.00 0.00
3:43 pm 15:43 Cloudy with Rain 51 10.6 49 9.4 92 92 N 9 15 29.88 1012 2 3 0.02 0.51
3:52 pm 15:52 Cloudy with Light Rain 51 10.6 49 9.4 92 92 N 10 17 29.87 1012 3 4 0.03 0.76
4:05 pm 16:05 Cloudy with Light Rain 51 10.6 49 9.4 92 92 NNE 10 17 29.88 1012 2 2 0.02 0.51
4:16 pm 16:16 Cloudy with Light Rain 52 11 48 9 88 88 N 13 20 29.88 1012 2 2 0.00 0.00
4:52 pm 16:52 Cloudy with Rain 50 10 49 9.4 96 96 N 14 22 29.88 1012 2 2 0.09 2.29
5:09 pm 17:09 Cloudy with Rain 50 10 48 8.9 93 93 N 17 28 29.88 1012 3 4 0.07 1.78
5:20 pm 17:20 Cloudy with Rain 50 10 48 9 94 94 N 18 30 29.88 1012 3 5 0.00 0.00
5:52 pm 17:52 Cloudy with Light Rain 49 9.4 47 8.3 93 93 N 17 28 29.86 1011 6 10 0.13 3.30
6:22 pm 18:22 Cloudy with Heavy Rain 48 9 46 8 94 94 N 18 30 29.91 1013 3 4 0.00 0.00
6:45 pm 18:45 Cloudy with Rain 48 8.9 45 7.2 89 89 NNE 21 33 29.91 1013 3 5 0.13 3.30
6:52 pm 18:52 Cloudy with Rain 48 8.9 45 7.2 89 89 NNE 18 30 29.87 1012 3 5 0.13 3.30
7:17 pm 19:17 Cloudy with Rain 47 8.3 45 7.2 93 93 NNE 18 30 29.91 1013 3 4 0.05 1.27
7:25 pm 19:25 Cloudy with Rain 47 8.3 45 7.2 93 93 NNE 16 26 29.91 1013 3 5 0.05 1.27
7:52 pm 19:52 Cloudy with Light Rain 47 8.3 44 6.7 90 90 NNE 22 35 29.88 1012 8 13 0.07 1.78
8:52 pm 20:52 Cloudy with Light Rain 47 8.3 44 6.7 90 90 NNE 20 31 29.88 1012 8 13 0.06 1.52
9:15 pm 21:15 Cloudy with Light Rain 47 8.3 44 6.7 90 90 NE 21 33 29.91 1013 5 8 0.03 0.76
9:36 pm 21:36 Cloudy with Light Rain 47 8.3 44 6.7 90 90 NNE 17 28 29.91 1013 8 13 0.04 1.02
9:48 pm 21:48 Cloudy with Light Rain 46 8 45 7 93 93 N 15 24 29.91 1013 9 14 0.00 0.00
9:52 pm 21:52 Cloudy with Light Rain 47 8.3 44 6.7 90 90 NNE 17 28 29.89 1012 9 14 0.05 1.27
10:21 pm 22:21 Cloudy with Light Rain 47 8.3 44 6.7 90 90 N 14 22 29.94 1014 10 16 0.01 0.25
10:52 pm 22:52 Cloudy with Light Rain 47 8.3 44 6.7 90 90 N 18 30 29.90 1013 10 16 0.02 0.51
11:21 pm 23:21 Cloudy with Light Rain 47 8.3 44 6.7 90 90 N 16 26 29.94 1014 9 14 0.01 0.25
11:52 pm 23:52 Cloudy with Light Rain 46 7.8 44 6.7 93 93 N 17 28 29.90 1013 10 16 0.03 0.76

Powered by AerisWeather